TimeEDT,TemperatureF,Dew PointF,Humidity,Sea Level PressureIn,VisibilityMPH,Wind Direction,Wind SpeedMPH,Gust SpeedMPH,PrecipitationIn,Events,Conditions,WindDirDegrees,DateUTC
12:15 AM,51.3,32.0,48,30.47,10.0,South,8.1,-,N/A,,Clear,170,2013-05-03 04:15:00
12:35 AM,50.9,31.1,47,30.47,10.0,South,6.9,-,N/A,,Clear,170,2013-05-03 04:35:00
12:55 AM,49.3,29.3,46,30.47,10.0,South,6.9,-,N/A,,Clear,170,2013-05-03 04:55:00
1:15 AM,49.1,25.7,40,30.47,10.0,SSE,6.9,-,N/A,,Clear,160,2013-05-03 05:15:00
1:55 AM,47.5,22.3,37,30.47,10.0,SSE,5.8,-,N/A,,Clear,160,2013-05-03 05:55:00
2:15 AM,45.9,21.9,39,30.47,10.0,South,6.9,-,N/A,,Clear,170,2013-05-03 06:15:00
2:35 AM,45.1,22.1,40,30.48,10.0,SSE,5.8,-,N/A,,Clear,160,2013-05-03 06:35:00
2:55 AM,44.8,22.5,41,30.47,10.0,SSE,5.8,-,N/A,,Clear,160,2013-05-03 06:55:00
3:15 AM,44.4,23.0,43,30.48,10.0,SSE,4.6,-,N/A,,Clear,160,2013-05-03 07:15:00
3:35 AM,44.6,23.0,43,30.48,10.0,SSE,4.6,-,N/A,,Clear,150,2013-05-03 07:35:00
3:55 AM,44.4,23.4,43,30.49,10.0,Calm,Calm,-,N/A,,Clear,0,2013-05-03 07:55:00
4:15 AM,43.9,23.7,45,30.49,10.0,Calm,Calm,-,N/A,,Clear,0,2013-05-03 08:15:00
4:35 AM,43.2,23.9,47,30.49,10.0,Calm,Calm,-,N/A,,Clear,0,2013-05-03 08:35:00
4:55 AM,43.0,24.6,48,30.49,10.0,Calm,Calm,-,N/A,,Clear,0,2013-05-03 08:55:00
5:15 AM,40.1,25.0,55,30.50,10.0,Calm,Calm,-,N/A,,Clear,0,2013-05-03 09:15:00
5:35 AM,40.5,25.9,56,30.51,10.0,East,3.5,-,N/A,,Clear,90,2013-05-03 09:35:00
5:55 AM,40.8,26.4,57,30.51,10.0,Calm,Calm,-,N/A,,Clear,0,2013-05-03 09:55:00
6:15 AM,41.4,27.0,57,30.52,10.0,Calm,Calm,-,N/A,,Clear,0,2013-05-03 10:15:00
6:35 AM,41.9,28.4,59,30.52,10.0,Calm,Calm,-,N/A,,Clear,0,2013-05-03 10:35:00
6:55 AM,43.0,29.3,59,30.53,10.0,Calm,Calm,-,N/A,,Clear,0,2013-05-03 10:55:00
7:15 AM,43.9,29.8,58,30.54,10.0,East,3.5,-,N/A,,Clear,90,2013-05-03 11:15:00
7:35 AM,45.1,30.4,56,30.54,10.0,ESE,4.6,-,N/A,,Clear,120,2013-05-03 11:35:00
7:55 AM,46.6,30.7,54,30.54,10.0,Calm,Calm,-,N/A,,Clear,0,2013-05-03 11:55:00
8:15 AM,47.5,30.9,53,30.53,10.0,Calm,Calm,-,N/A,,Clear,0,2013-05-03 12:15:00
8:35 AM,48.6,31.8,52,30.53,10.0,East,3.5,-,N/A,,Clear,100,2013-05-03 12:35:00
8:55 AM,50.0,31.6,49,30.53,10.0,South,4.6,-,N/A,,Clear,190,2013-05-03 12:55:00
9:15 AM,50.7,31.3,47,30.53,10.0,Calm,Calm,-,N/A,,Clear,0,2013-05-03 13:15:00
9:35 AM,52.3,32.2,46,30.52,10.0,South,5.8,-,N/A,,Clear,170,2013-05-03 13:35:00
10:15 AM,54.3,32.2,43,30.52,10.0,West,3.5,-,N/A,,Clear,270,2013-05-03 14:15:00
10:55 AM,57.7,30.0,35,30.51,10.0,Calm,Calm,-,N/A,,Clear,0,2013-05-03 14:55:00
11:15 AM,59.0,30.0,33,30.50,10.0,South,5.8,-,N/A,,Clear,180,2013-05-03 15:15:00
11:35 AM,59.9,30.7,33,30.49,10.0,Calm,Calm,-,N/A,,Clear,0,2013-05-03 15:35:00
11:55 AM,61.3,31.8,33,30.48,10.0,Calm,Calm,-,N/A,,Clear,0,2013-05-03 15:55:00
12:15 PM,61.7,30.4,31,30.47,10.0,Calm,Calm,-,N/A,,Clear,0,2013-05-03 16:15:00
12:35 PM,63.9,32.5,31,30.45,10.0,SSE,4.6,-,N/A,,Clear,160,2013-05-03 16:35:00
12:55 PM,64.0,31.5,30,30.45,10.0,SSW,5.8,-,N/A,,Clear,200,2013-05-03 16:55:00
1:15 PM,64.8,32.4,30,30.44,10.0,SW,8.1,-,N/A,,Clear,220,2013-05-03 17:15:00
1:35 PM,64.4,30.7,28,30.43,10.0,SSW,5.8,-,N/A,,Clear,210,2013-05-03 17:35:00
1:55 PM,66.2,30.9,27,30.43,10.0,WSW,3.5,-,N/A,,Clear,250,2013-05-03 17:55:00
2:15 PM,66.7,31.5,27,30.42,10.0,West,6.9,-,N/A,,Clear,270,2013-05-03 18:15:00
2:35 PM,66.9,30.6,26,30.41,10.0,South,3.5,-,N/A,,Clear,190,2013-05-03 18:35:00
2:55 PM,67.8,31.6,26,30.40,10.0,WSW,6.9,-,N/A,,Clear,250,2013-05-03 18:55:00
3:15 PM,67.5,30.2,25,30.40,10.0,NW,3.5,-,N/A,,Clear,320,2013-05-03 19:15:00
3:35 PM,68.9,31.8,25,30.39,10.0,WSW,4.6,-,N/A,,Clear,240,2013-05-03 19:35:00
3:55 PM,69.4,31.3,24,30.38,10.0,WSW,5.8,-,N/A,,Clear,240,2013-05-03 19:55:00
4:15 PM,70.2,31.5,24,30.37,10.0,Calm,Calm,-,N/A,,Clear,0,2013-05-03 20:15:00
4:35 PM,69.6,31.6,24,30.37,10.0,West,5.8,-,N/A,,Clear,270,2013-05-03 20:35:00
4:55 PM,70.2,30.6,23,30.36,10.0,SW,3.5,-,N/A,,Clear,230,2013-05-03 20:55:00
5:15 PM,69.4,30.4,23,30.36,10.0,SSW,4.6,-,N/A,,Clear,200,2013-05-03 21:15:00
5:35 PM,70.3,31.1,23,30.36,10.0,Calm,Calm,-,N/A,,Clear,0,2013-05-03 21:35:00
5:55 PM,69.4,30.9,24,30.36,10.0,WSW,3.5,-,N/A,,Clear,240,2013-05-03 21:55:00
6:15 PM,69.1,31.1,24,30.35,10.0,West,5.8,-,N/A,,Clear,270,2013-05-03 22:15:00
6:35 PM,68.5,31.1,25,30.35,10.0,West,4.6,-,N/A,,Clear,280,2013-05-03 22:35:00
6:55 PM,68.0,32.7,27,30.35,10.0,WSW,4.6,-,N/A,,Clear,240,2013-05-03 22:55:00
7:15 PM,67.5,31.5,26,30.35,10.0,WSW,3.5,-,N/A,,Clear,250,2013-05-03 23:15:00
7:35 PM,67.1,31.1,26,30.35,10.0,SW,3.5,-,N/A,,Scattered Clouds,230,2013-05-03 23:35:00
7:55 PM,65.1,32.2,29,30.36,10.0,SE,6.9,-,N/A,,Mostly Cloudy,130,2013-05-03 23:55:00
8:15 PM,63.9,33.6,32,30.36,10.0,SE,5.8,-,N/A,,Mostly Cloudy,140,2013-05-04 00:15:00
8:35 PM,62.4,33.8,34,30.37,10.0,SE,3.5,-,N/A,,Scattered Clouds,130,2013-05-04 00:35:00
8:55 PM,60.6,34.5,38,30.38,10.0,ESE,3.5,-,N/A,,Clear,120,2013-05-04 00:55:00
9:15 PM,60.8,34.7,38,30.38,10.0,SSE,6.9,-,N/A,,Clear,160,2013-05-04 01:15:00
9:35 PM,59.7,35.1,40,30.39,10.0,South,5.8,-,N/A,,Clear,180,2013-05-04 01:35:00
9:55 PM,58.3,35.4,42,30.39,10.0,South,5.8,-,N/A,,Clear,180,2013-05-04 01:55:00
10:15 PM,57.9,35.6,43,30.39,10.0,South,5.8,-,N/A,,Clear,170,2013-05-04 02:15:00
10:35 PM,57.4,35.6,44,30.38,10.0,South,4.6,-,N/A,,Clear,180,2013-05-04 02:35:00
10:55 PM,57.6,35.6,44,30.38,10.0,Calm,Calm,-,N/A,,Clear,0,2013-05-04 02:55:00
11:15 PM,56.3,35.6,46,30.38,10.0,Calm,Calm,-,N/A,,Clear,0,2013-05-04 03:15:00
11:55 PM,54.5,36.1,50,30.39,10.0,Calm,Calm,-,N/A,,Clear,0,2013-05-04 03:55:00